Regional Weather Roundup
Issued by NWS

Home | Current Version | Previous Version | Graphics & Text | Print | Product List | Glossary On
Versions: 1 2 3 4 5 6 7 8 9 10 11 12 13 14 15 16 17 18 19 20 21 22 23 24 25 26 27 28 29 30 31 32 33 34 35 36 37 38 39 40 41 42 43 44 45 46 47 48 49 50
000
ASUS43 KLSX 021410
RWRMO

WEATHER SUMMARY FOR MISSOURI
NATIONAL WEATHER SERVICE SPRINGFIELD MO
900 AM CDT MON MAY 02 2016

NOTE: "FAIR" INDICATES FEW OR NO CLOUDS BELOW 12,000 FEET WITH NO
       SIGNIFICANT WEATHER AND/OR OBSTRUCTIONS TO VISIBILITY.
       CURRENT SKY AND/OR WEATHER CONDITIONS ARE NOT AVAILABLE FOR
       CHILLICOTHE AND FARMINGTON.

MOZ001>031-035>038-043-044-053-054-021500-
...NORTHERN AND WESTERN MISSOURI...

CITY           SKY/WX    TMP DP  RH WIND       PRES   REMARKS
KANSAS CTY INT CLOUDY    50  45  83 NW7       30.12R
KANSAS C DTWN  CLOUDY    51  45  79 N7        30.11S
LEE`S SUMMIT   CLOUDY    50  45  83 NW7       30.11S
ST JOSEPH      CLOUDY    50  45  83 N7        30.13R
CHILLICOTHE      N/A     51  47  86 CALM      30.12R
KIRKSVILLE     CLOUDY    50  46  86 N9        30.09R

$$
MOZ066>068-077>081-088>096-101>105-021500-
...SOUTHWEST MISSOURI...

CITY           SKY/WX    TMP DP  RH WIND       PRES   REMARKS
SPRINGFIELD    CLOUDY    52  44  74 N5        30.08R
JOPLIN         CLOUDY    52  46  80 N6        30.12R
BRANSON        CLOUDY    52  46  82 N5        30.09R

$$
MOZ032>034-039>042-045>050-055>058-069>072-021500-
...CENTRAL MISSOURI...

CITY           SKY/WX    TMP DP  RH WIND       PRES   REMARKS
COLUMBIA       CLOUDY    51  46  83 NW8       30.07F
JEFFERSON CITY PTSUNNY   52  46  80 CALM      30.07F
ROLLA          CLOUDY    50  45  83 N5        30.06R
SEDALIA        CLOUDY    51  47  86 NW7       30.11R
WHITEMAN AFB   DRIZZLE   50  50  98 N6        30.09R
WARRENSBURG    CLOUDY    50  45  81 NW6       30.11R
OSAGE BEACH    CLOUDY    50  39  66 N5        30.09R

$$
MOZ051-052-059>065-021500-
...EAST CENTRAL MISSOURI...

CITY           SKY/WX    TMP DP  RH WIND       PRES   REMARKS
ST LOUIS INTL  CLOUDY    54  47  77 NW6       30.06S
SPIRIT OF STL  CLOUDY    54  49  83 NW6       30.05S
ST CHARLES     CLOUDY    53  48  83 NW8       30.05R

$$
MOZ072>076-082>087-097>100-106>115-021500-
...SOUTH CENTRAL AND SOUTHEAST MISSOURI...

CITY           SKY/WX    TMP DP  RH WIND       PRES   REMARKS
CAPE GIRARDEAU PTSUNNY   58  49  72 N8        30.03S
FARMINGTON     CLOUDY    53  46  77 NW8       30.07R
POPLAR BLUFF   MOSUNNY   59  49  69 NE5       30.05R
WEST PLAINS    SUNNY     56  44  64 N10       30.07F

$$



USA.gov is the U.S. government's official web portal to all federal, state and local government web resources and services.